Other Public Products
Issued by NWS Grand Forks, ND

Home | Current Version | Previous Version | Graphics & Text | Print | Product List | Glossary On
Versions: 1 2 3 4 5 6 7 8 9 10 11 12 13 14 15 16 17 18 19 20 21 22 23 24 25 26 27 28 29 30 31 32 33 34 35 36 37 38 39 40 41 42 43 44 45 46 47 48 49 50
000
FPUS83 KFGF 191210
OPUFGF
PRAIRIE TO PINES WEATHER ROUNDUP
NATIONAL WEATHER SERVICE EASTERN NORTH DAKOTA/GRAND FORKS ND
700 AM CDT SUN APR 19 2015

 **SATELLITE DATA USED TO AUGMENT SKY COVER AT AUTOMATED STATIONS**
 *****  WEATHER ACROSS EASTERN NORTH DAKOTA  *****

CITY           SKY/WX    TMP DP  RH WIND       PRES   REMARKS
GRAND FORKS    RAIN      46  45  93 NW9       29.73S FOG
6HR MIN TEMP:  46; 6HR MAX TEMP:  59; 6HR PCP:  0.17;

GRAND FORKS AF LGT RAIN  46  44  95 NW10      29.74R
GRAND CITY NWS   N/A     45 N/A N/A NW9         N/A
BUXTON         NOT AVBL
DEVILS LAKE    CLOUDY    43  37  81 NW12      29.79S
6HR MIN TEMP:  43; 6HR MAX TEMP:  54; 6HR PCP:  0.19;

FARGO          LGT RAIN  49  47  93 NW15      29.71S FOG
6HR MIN TEMP:  49; 6HR MAX TEMP:  58; 6HR PCP:  0.27;

WAHPETON ARPT  CLOUDY    46  45  93 N8        29.70R
$$

 *****  WEATHER ACROSS CENTRAL AND WESTERN NORTH DAKOTA  *****

CITY           SKY/WX    TMP DP  RH WIND       PRES   REMARKS
JAMESTOWN      LGT RAIN  43  41  93 NW16      29.79R
6HR MIN TEMP:  43; 6HR MAX TEMP:  48; 6HR PCP:  0.20;

BISMARCK       MOCLDY    41  32  70 NW12      29.92F
6HR MIN TEMP:  41; 6HR MAX TEMP:  47; 6HR PCP:  0.06;

MINOT          CLOUDY    39  30  70 W17       29.89R
6HR MIN TEMP:  39; 6HR MAX TEMP:  44;

MINOT AFB      MOCLDY    37  36  95 NW15      29.88R
6HR MIN TEMP:  37; 6HR MAX TEMP:  45;

GARRISON         N/A     36  30  79 W14       29.91R
6HR MIN TEMP:  36; 6HR MAX TEMP:  45;

WILLISTON      CLOUDY    42  32  67 NW18G28   30.00R
6HR MIN TEMP:  36; 6HR MAX TEMP:  42;

DICKINSON      CLEAR     33  26  75 W13       29.97R WCI  24
6HR MIN TEMP:  33; 6HR MAX TEMP:  44;

HETTINGER      CLEAR     33  26  75 NW15G22   30.01S WCI  23
6HR MIN TEMP:  32; 6HR MAX TEMP:  43;

$$

 *****  OTHER OBSERVATIONS NORTHEAST NORTH DAKOTA  *****

CITY           SKY/WX    TMP DP  RH WIND       PRES   REMARKS
WALHALLA       LGT RAIN  45  45 100 W9        29.75S
LANGDON        CLOUDY    41  41 100 NW14      29.76S
CAVALIER       LGT RAIN  45  43  93 NW12      29.74S
GRAFTON        LGT RAIN  46  46 100 NW9       29.75S
CANDO          CLOUDY    41  39  93 W13       29.81R
FORT TOTTEN      N/A     42  41  96 NW6       29.95S
ROLLA          MIX PCPN  39  37  93 NW15G22   29.81R
RUGBY          NOT AVBL
 ***** THE ABOVE OBSERVATIONS ARE NON NWS ARE NOT QUALITY
        CONTROLLED AND MAY MIS-REPORT RAIN FOR SNOW...
$$

 *****  OTHER OBSERVATIONS SOUTHEAST NORTH DAKOTA *****

CITY           SKY/WX    TMP DP  RH WIND       PRES   REMARKS
COOPERSTOWN    NOT AVBL
VALLEY CITY    LGT RAIN  45  45 100 N22       29.77R
OAKES            N/A     45  45 100 NW22G30   29.75S
GWINNER          N/A     48  48 100 NW15      29.75S
SHEYENNE NWR     N/A     48  47  96 NW10      29.95S
BUFFALO        NOT AVBL
WYNDMERE         N/A     48  48 100 NW13        N/A
 ***** THE ABOVE OBSERVATIONS ARE NON NWS ARE NOT QUALITY
       CONTROLLED AND MAY MIS-REPORT RAIN FOR SNOW...
$$

  *****  WEATHER ACROSS NORTHERN MINNESOTA  *****

CITY           SKY/WX    TMP DP  RH WIND       PRES   REMARKS
FLAG ISLAND    LGT RAIN  39  34  81 SE8       29.75F
WARROAD        DRIZZLE   43  37  81 SE6       29.75F
ROSEAU         DRIZZLE   45  39  81 SE5       29.74S
HALLOCK        LGT RAIN  46  45  93 N8        29.73S
THF RVR FALLS  CLOUDY    46  43  87 E3        29.73F
6HR MIN TEMP:  46; 6HR MAX TEMP:  55; 6HR PCP:  0.01;

HALSTAD        NOT AVBL
FOSSTON        RAIN      43  39  87 E3        29.72S
BAUDETTE       LGT RAIN  39  37  92 SE7       29.76F
6HR MIN TEMP:  39; 6HR MAX TEMP:  49; 6HR PCP:  0.04;

WASKISH        RAIN      39  37  93 CALM      29.74F
CROOKSTON      LGT RAIN  46  46 100 CALM      29.73S
$$
  *****  WEATHER ACROSS CENTRAL AND WEST MINNESOTA  *****

CITY           SKY/WX    TMP DP  RH WIND       PRES   REMARKS
BEMIDJI        RAIN      39  38  97 E6        29.72S
PARK RAPIDS    LGT RAIN  42  39  89 NE9       29.69S FOG
6HR MIN TEMP:  42; 6HR MAX TEMP:  45; 6HR PCP:  0.75;

WADENA         DRIZZLE   43  43 100 E3        29.65F
DETROIT LAKES  CLOUDY    45  43  93 NE3       29.69F
MOORHEAD       DRIZZLE   46  46 100 N7        29.71S
FERGUS FALLS   CLOUDY    45  45 100 N7        29.69R
ELBOW LAKE     CLOUDY    46  46 100 NW13      29.65S FOG
6HR MIN TEMP:  46; 6HR MAX TEMP:  50; 6HR PCP:  0.17;

MORRIS MN      CLOUDY    48  46  93 NW12      29.67R
STAPLES        DRIZZLE   43  43 100 E5        29.67S
WHEATON        CLOUDY    45  45 100 NW10G16   29.70S
$$
  *****  WEATHER ELSEWHERE ACROSS MINNESOTA  *****

CITY           SKY/WX    TMP DP  RH WIND       PRES   REMARKS
DULUTH         LGT RAIN  38  35  89 E15       29.78F
6HR MIN TEMP:  38; 6HR MAX TEMP:  41; 6HR PCP:  0.19;

INTRNTL FALLS  LGT RAIN  39  38  96 SE6       29.78F FOG
6HR MIN TEMP:  39; 6HR MAX TEMP:  45; 6HR PCP:  0.08;

ELY            RAIN      36  36 100 E6        29.79F
CLOQUET        LGT RAIN  37  36  93 E9        29.77F
BRAINERD       LGT RAIN  42  41  96 SE5       29.69F FOG
6HR MIN TEMP:  41; 6HR MAX TEMP:  42; 6HR PCP:  0.34;

HIBBING        RAIN      37  35  92 E7        29.77F FOG
6HR MIN TEMP:  37; 6HR MAX TEMP:  42;

ALEXANDRIA     LGT RAIN  51  49  92 W9        29.66R FOG
6HR MIN TEMP:  46; 6HR MAX TEMP:  52; 6HR PCP:  0.22;

SAINT CLOUD    CLOUDY    47  45  93 SE9       29.69F
6HR MIN TEMP:  47; 6HR MAX TEMP:  50; 6HR PCP:  0.12;

MINNEAPOLIS    LGT RAIN  48  43  82 SE9       29.74F
6HR MIN TEMP:  48; 6HR MAX TEMP:  52; 6HR PCP:  0.03;

$$

  *****  WEATHER ACROSS SOUTH DAKOTA  *****

CITY           SKY/WX    TMP DP  RH WIND       PRES   REMARKS
SIOUX FALLS    CLOUDY    51  49  92 NW15      29.74R
6HR MIN TEMP:  51; 6HR MAX TEMP:  57;

BROOKINGS      CLOUDY    52  48  87 NW20      29.74R
WATERTOWN      CLOUDY    48  45  89 NW16G26   29.73R
6HR MIN TEMP:  48; 6HR MAX TEMP:  54; 6HR PCP:  0.03;

HURON          CLOUDY    46  43  89 NW25G33   29.80R
6HR MIN TEMP:  46; 6HR MAX TEMP:  54; 6HR PCP: TRACE;

SISSETON         N/A     48  47  96 N22       29.70R
ABERDEEN       CLOUDY    46  42  86 NW26G32   29.81R
6HR MIN TEMP:  46; 6HR MAX TEMP:  52; 6HR PCP:  0.21;

MITCHELL       CLOUDY    49  45  86 NW25G31   29.82R
PIERRE         PTCLDY    42  36  79 NW16      29.92S
6HR MIN TEMP:  42; 6HR MAX TEMP:  48; 6HR PCP:  0.01;

MOBRIDGE       CLOUDY    43  34  70 NW20G28   29.90R
RAPID CITY     MOCLDY    38  25  59 NW20      30.07R
6HR MIN TEMP:  36; 6HR MAX TEMP:  45;

$$

  *****  SOME WEATHER IN NEARBY STATES *****

CITY           SKY/WX    TMP DP  RH WIND       PRES   REMARKS
GLASGOW MT     CLEAR     34  26  72 NW16      30.14R WCI  24
6HR MIN TEMP:  33; 6HR MAX TEMP:  37;

GREAT FALLS MT PTCLDY    30  28  92 SW6       30.26S WCI  24
6HR MIN TEMP:  28; 6HR MAX TEMP:  39;

CHEYENNE WY    CLOUDY    31  23  72 N22G36    30.10R WCI  18
6HR MIN TEMP:  31; 6HR MAX TEMP:  36; 6HR PCP:  0.01;

SCOTTSBLUFF NE PTCLDY    37  32  82 NW20      30.11R
6HR MIN TEMP:  37; 6HR MAX TEMP:  47;

OMAHA NE       FOG       56  56 100 E5        29.72F VSB 1/8
6HR MIN TEMP:  56; 6HR MAX TEMP:  58;

DES MOINES IA  LGT RAIN  58  56  93 E5        29.74F FOG
6HR MIN TEMP:  58; 6HR MAX TEMP:  59; 6HR PCP:  0.02;

DAVENPORT IA   MOCLDY    52  41  66 E9        29.78F
6HR MIN TEMP:  48; 6HR MAX TEMP:  55;

CHICAGO IL     MOCLDY    52  33  48 E8        29.85F
6HR MIN TEMP:  52; 6HR MAX TEMP:  55;

EAU CLAIRE WI  CLOUDY    46  33  60 E9        29.80F
6HR MIN TEMP:  45; 6HR MAX TEMP:  50; 6HR PCP:  0.01;

LA CROSSE WI   CLOUDY    52  34  50 E9        29.79F
6HR MIN TEMP:  50; 6HR MAX TEMP:  59; 6HR PCP: TRACE;

$$

  *****  SOME NATIONAL WEATHER *****

CITY           SKY/WX    TMP DP  RH WIND       PRES   REMARKS


USA.gov is the U.S. government's official web portal to all federal, state and local government web resources and services.